| time (UTC) | temp F | wind direction | speed knots | gust knots | rain 1hr in | rain 24hr in | rain mn in | humidity % | barometer mb |
| 20260505160714 | 80 | 68 | 4.3 | 9.6 | 0.00 | 0.09 | 0.08 | 86 | 1016.7 |
| 20260505152949 | 80 | 54 | 5.2 | 10.4 | 0.00 | 0.09 | 0.08 | 86 | 1016.4 |
| 20260505152450 | 80 | 119 | 4.3 | 10.4 | 0.00 | 0.09 | 0.08 | 85 | 1016.4 |
| 20260505151950 | 80 | 103 | 4.3 | 9.6 | 0.00 | 0.09 | 0.08 | 85 | 1016.4 |
| 20260505151448 | 80 | 110 | 3.5 | 9.6 | 0.00 | 0.09 | 0.08 | 84 | 1016.3 |
| 20260505150950 | 80 | 86 | 3.5 | 7.8 | 0.00 | 0.09 | 0.08 | 84 | 1016.4 |
| 20260505150450 | 80 | 105 | 3.5 | 8.7 | 0.00 | 0.09 | 0.08 | 84 | 1016.5 |
| 20260505140441 | 78 | 94 | 3.5 | 7.8 | 0.00 | 0.09 | 0.08 | 88 | 1016.3 |
| 20260505124821 | 78 | 84 | 2.6 | 7.8 | 0.00 | 0.09 | 0.08 | 89 | 1015.9 |
| 20260505124314 | 78 | 119 | 2.6 | 7.8 | 0.00 | 0.09 | 0.08 | 90 | 1015.9 |
| 20260505123809 | 77 | 113 | 2.6 | 7.0 | 0.00 | 0.09 | 0.08 | 89 | 1015.7 |
| 20260505123303 | 77 | 56 | 3.5 | 9.6 | 0.00 | 0.09 | 0.08 | 90 | 1015.8 |
| 20260505122758 | 77 | 87 | 3.5 | 9.6 | 0.00 | 0.09 | 0.08 | 91 | 1015.7 |
| 20260505122251 | 77 | 146 | 2.6 | 8.7 | 0.00 | 0.09 | 0.08 | 92 | 1015.5 |
| 20260505121745 | 76 | 118 | 3.5 | 8.7 | 0.00 | 0.09 | 0.08 | 92 | 1015.5 |
| 20260505121238 | 76 | 116 | 2.6 | 7.8 | 0.00 | 0.09 | 0.08 | 93 | 1015.5 |
| 20260505121214 | 76 | 68 | 2.6 | 7.0 | 0.00 | 0.09 | 0.08 | 93 | 1015.4 |
| 20260505120227 | 76 | 79 | 2.6 | 7.0 | 0.00 | 0.09 | 0.08 | 93 | 1015.2 |
| 20260505115721 | 75 | 94 | 2.6 | 6.1 | 0.00 | 0.09 | 0.08 | 92 | 1015.1 |
| 20260505115215 | 76 | 104 | 2.6 | 6.1 | 0.00 | 0.09 | 0.08 | 92 | 1015.2 |
| 20260505114709 | 76 | 67 | 2.6 | 6.1 | 0.00 | 0.09 | 0.08 | 92 | 1015.4 |
| 20260505114203 | 75 | 91 | 2.6 | 6.1 | 0.01 | 0.09 | 0.08 | 93 | 1015.3 |
| 20260505113657 | 75 | 96 | 2.6 | 7.0 | 0.01 | 0.09 | 0.08 | 92 | 1015.3 |
| 20260505113151 | 75 | 102 | 1.7 | 7.0 | 0.02 | 0.09 | 0.08 | 92 | 1015.3 |
| 20260505112645 | 75 | 94 | 1.7 | 5.2 | 0.02 | 0.09 | 0.08 | 93 | 1015.2 |
| 20260505112138 | 75 | 91 | 1.7 | 5.2 | 0.02 | 0.09 | 0.08 | 93 | 1015.1 |
| 20260505111633 | 74 | 115 | 2.6 | 6.1 | 0.02 | 0.09 | 0.08 | 93 | 1015.0 |
| 20260505111133 | 74 | 91 | 2.6 | 6.1 | 0.02 | 0.09 | 0.08 | 93 | 1015.1 |
| 20260505110633 | 74 | 103 | 2.6 | 5.2 | 0.02 | 0.09 | 0.08 | 94 | 1015.0 |
| 20260505110137 | 74 | 109 | 2.6 | 7.0 | 0.02 | 0.09 | 0.08 | 94 | 1015.0 |
| 20260505102130 | 75 | 67 | 2.6 | 8.7 | 0.00 | 0.07 | 0.06 | 92 | 1014.6 |
| 20260505101630 | 75 | 109 | 2.6 | 10.4 | 0.00 | 0.07 | 0.06 | 92 | 1014.6 |
| 20260505101130 | 75 | 75 | 3.5 | 10.4 | 0.00 | 0.07 | 0.06 | 92 | 1014.6 |
| 20260505100852 | 74 | 113 | 4.3 | 9.6 | 0.00 | 0.07 | 0.06 | 92 | 1014.5 |
| 20260505100134 | 74 | 104 | 4.3 | 9.6 | 0.00 | 0.07 | 0.06 | 92 | 1014.5 |
| 20260505095634 | 74 | 74 | 4.3 | 9.6 | 0.00 | 0.07 | 0.06 | 92 | 1014.4 |
| 20260505095346 | 74 | 94 | 3.5 | 10.4 | 0.00 | 0.07 | 0.06 | 92 | 1014.3 |
| 20260505094847 | 74 | 106 | 3.5 | 10.4 | 0.00 | 0.07 | 0.06 | 92 | 1014.1 |
| 20260505094115 | 74 | 98 | 3.5 | 8.7 | 0.00 | 0.08 | 0.06 | 92 | 1014.1 |
| 20260505093610 | 74 | 68 | 3.5 | 12.2 | 0.00 | 0.08 | 0.06 | 92 | 1014.3 |
| 20260505093103 | 74 | 37 | 3.5 | 12.2 | 0.00 | 0.08 | 0.06 | 92 | 1014.2 |
| 20260505092818 | 74 | 88 | 3.5 | 9.6 | 0.00 | 0.08 | 0.06 | 92 | 1014.1 |
| 20260505092051 | 74 | 120 | 3.5 | 9.6 | 0.00 | 0.08 | 0.06 | 92 | 1014.0 |
| 20260505091546 | 74 | 93 | 3.5 | 9.6 | 0.00 | 0.08 | 0.06 | 92 | 1014.1 |
| 20260505091039 | 74 | 71 | 4.3 | 8.7 | 0.00 | 0.08 | 0.06 | 92 | 1014.2 |
| 20260505090538 | 74 | 73 | 4.3 | 8.7 | 0.00 | 0.08 | 0.06 | 91 | 1014.0 |
| 20260505090037 | 74 | 92 | 4.3 | 10.4 | 0.00 | 0.08 | 0.06 | 91 | 1014.0 |
| 20260505085537 | 74 | 41 | 4.3 | 10.4 | 0.00 | 0.08 | 0.06 | 91 | 1014.1 |
| 20260505085038 | 74 | 94 | 3.5 | 9.6 | 0.00 | 0.08 | 0.06 | 92 | 1014.1 |
| 20260505084537 | 74 | 88 | 3.5 | 8.7 | 0.00 | 0.08 | 0.06 | 92 | 1014.0 |
| 20260505084037 | 74 | 59 | 3.5 | 7.8 | 0.00 | 0.08 | 0.06 | 92 | 1014.0 |
| 20260505083536 | 74 | 78 | 3.5 | 7.8 | 0.00 | 0.08 | 0.06 | 92 | 1014.0 |
| 20260505083036 | 74 | 23 | 3.5 | 8.7 | 0.00 | 0.08 | 0.06 | 92 | 1014.1 |
| 20260505082536 | 74 | 94 | 3.5 | 9.6 | 0.00 | 0.08 | 0.06 | 92 | 1014.0 |
| 20260505082038 | 74 | 98 | 3.5 | 9.6 | 0.00 | 0.08 | 0.06 | 93 | 1014.0 |
| 20260505081536 | 74 | 81 | 2.6 | 9.6 | 0.00 | 0.08 | 0.06 | 92 | 1013.9 |
| 20260505081036 | 74 | 58 | 3.5 | 9.6 | 0.00 | 0.08 | 0.06 | 92 | 1013.9 |
| 20260505080536 | 74 | 87 | 3.5 | 8.7 | 0.01 | 0.08 | 0.06 | 93 | 1014.0 |
| 20260505080037 | 74 | 73 | 4.3 | 9.6 | 0.04 | 0.08 | 0.06 | 93 | 1014.0 |
| 20260505075537 | 74 | 79 | 3.5 | 9.6 | 0.06 | 0.08 | 0.06 | 93 | 1013.9 |
| 20260505075513 | 74 | 52 | 3.5 | 9.6 | 0.06 | 0.08 | 0.06 | 93 | 1014.1 |
| 20260505074532 | 74 | 76 | 3.5 | 13.0 | 0.06 | 0.08 | 0.06 | 93 | 1014.2 |
| 20260505074031 | 74 | 81 | 3.5 | 13.0 | 0.06 | 0.08 | 0.06 | 93 | 1014.2 |
| 20260505073756 | 74 | 58 | 3.5 | 9.6 | 0.06 | 0.08 | 0.06 | 94 | 1014.3 |
| 20260505073033 | 74 | 115 | 3.5 | 7.8 | 0.06 | 0.08 | 0.06 | 94 | 1014.3 |
| 20260505072533 | 74 | 108 | 3.5 | 9.6 | 0.06 | 0.08 | 0.06 | 94 | 1014.3 |
| 20260505072031 | 74 | 94 | 3.5 | 9.6 | 0.06 | 0.08 | 0.06 | 94 | 1014.2 |
| 20260505071532 | 74 | 99 | 3.5 | 7.8 | 0.06 | 0.08 | 0.06 | 94 | 1014.3 |
| 20260505071033 | 74 | 96 | 3.5 | 9.6 | 0.06 | 0.08 | 0.06 | 93 | 1014.3 |
| 20260505070533 | 75 | 106 | 3.5 | 9.6 | 0.05 | 0.07 | 0.05 | 93 | 1014.4 |
| 20260505070032 | 75 | 82 | 2.6 | 7.8 | 0.02 | 0.05 | 0.03 | 92 | 1014.5 |
| 20260505065533 | 75 | 94 | 2.6 | 10.4 | 0.00 | 0.05 | 0.00 | 91 | 1014.5 |
| 20260505065031 | 76 | 109 | 3.5 | 10.4 | 0.00 | 0.08 | 0.00 | 89 | 1014.6 |
| 20260505064531 | 76 | 122 | 3.5 | 9.6 | 0.00 | 0.08 | 0.00 | 88 | 1014.4 |
| 20260505064031 | 76 | 84 | 3.5 | 8.7 | 0.00 | 0.08 | 0.00 | 88 | 1014.4 |
| 20260505063531 | 76 | 53 | 3.5 | 9.6 | 0.00 | 0.08 | 0.00 | 87 | 1014.5 |
| 20260505063031 | 76 | 60 | 3.5 | 9.6 | 0.00 | 0.08 | 0.00 | 87 | 1014.5 |
| 20260505062529 | 76 | 107 | 3.5 | 8.7 | 0.00 | 0.08 | 0.00 | 88 | 1014.7 |
| 20260505062253 | 76 | 73 | 4.3 | 9.6 | 0.00 | 0.08 | 0.00 | 88 | 1014.9 |
| 20260505061530 | 76 | 66 | 4.3 | 9.6 | 0.00 | 0.08 | 0.00 | 88 | 1014.9 |
| 20260505061031 | 76 | 77 | 3.5 | 8.7 | 0.00 | 0.08 | 0.00 | 88 | 1015.1 |
| 20260505060530 | 76 | 53 | 3.5 | 8.7 | 0.00 | 0.08 | 0.00 | 88 | 1015.1 |
| 20260505060259 | 76 | 85 | 2.6 | 7.8 | 0.00 | 0.08 | 0.00 | 88 | 1015.1 |
| 20260505055754 | 76 | 25 | 3.5 | 8.7 | 0.00 | 0.08 | 0.00 | 88 | 1015.0 |
| 20260505055030 | 76 | 108 | 4.3 | 10.4 | 0.00 | 0.08 | 0.00 | 87 | 1014.9 |
| 20260505054531 | 76 | 100 | 3.5 | 10.4 | 0.00 | 0.08 | 0.00 | 87 | 1015.0 |
| 20260505054029 | 76 | 77 | 3.5 | 7.8 | 0.00 | 0.08 | 0.00 | 87 | 1015.2 |
| 20260505053531 | 76 | 110 | 2.6 | 8.7 | 0.00 | 0.08 | 0.00 | 87 | 1015.3 |
| 20260505053029 | 76 | 92 | 3.5 | 8.7 | 0.00 | 0.08 | 0.00 | 86 | 1015.3 |
| 20260505052532 | 76 | 90 | 3.5 | 9.6 | 0.00 | 0.08 | 0.00 | 87 | 1015.3 |
| 20260505052026 | 76 | 129 | 3.5 | 9.6 | 0.00 | 0.08 | 0.00 | 87 | 1015.4 |
| 20260505051527 | 76 | 104 | 3.5 | 9.6 | 0.00 | 0.08 | 0.00 | 87 | 1015.3 |
| 20260505051025 | 76 | 19 | 3.5 | 9.6 | 0.00 | 0.08 | 0.00 | 87 | 1015.3 |
| 20260505050526 | 76 | 51 | 3.5 | 7.8 | 0.00 | 0.08 | 0.00 | 86 | 1015.4 |
| 20260505050247 | 76 | 96 | 3.5 | 7.8 | 0.00 | 0.08 | 0.00 | 86 | 1015.5 |
| 20260505041504 | 75 | 46 | 3.5 | 8.7 | 0.00 | 0.08 | 0.00 | 87 | 1015.9 |
| 20260505040959 | 75 | 117 | 3.5 | 9.6 | 0.00 | 0.08 | 0.00 | 87 | 1016.0 |
| 20260505040453 | 75 | 110 | 3.5 | 9.6 | 0.00 | 0.09 | 0.00 | 87 | 1016.0 |
| 20260505035955 | 75 | 70 | 4.3 | 11.3 | 0.00 | 0.10 | 0.10 | 86 | 1015.9 |
| 20260505035454 | 75 | 110 | 3.5 | 11.3 | 0.00 | 0.11 | 0.10 | 86 | 1015.9 |
| 20260505034953 | 75 | 60 | 3.5 | 9.6 | 0.00 | 0.11 | 0.10 | 86 | 1015.9 |
| 20260505034452 | 75 | 106 | 3.5 | 9.6 | 0.00 | 0.11 | 0.10 | 86 | 1015.9 |
| 20260505033952 | 75 | 86 | 2.6 | 7.0 | 0.00 | 0.11 | 0.10 | 86 | 1015.9 |
| 20260505033938 | 75 | 60 | 3.5 | 10.4 | 0.00 | 0.11 | 0.10 | 86 | 1015.8 |
| 20260505032954 | 76 | 53 | 4.3 | 10.4 | 0.00 | 0.11 | 0.10 | 86 | 1015.9 |
| 20260505032452 | 76 | 58 | 4.3 | 10.4 | 0.00 | 0.11 | 0.10 | 86 | 1015.9 |
| 20260505031952 | 76 | 71 | 4.3 | 10.4 | 0.00 | 0.11 | 0.10 | 85 | 1015.8 |
| 20260505031452 | 76 | 120 | 4.3 | 10.4 | 0.00 | 0.11 | 0.10 | 86 | 1015.6 |
| 20260505030954 | 76 | 27 | 4.3 | 9.6 | 0.00 | 0.11 | 0.10 | 86 | 1015.8 |
| 20260505030452 | 76 | 84 | 3.5 | 9.6 | 0.00 | 0.12 | 0.10 | 86 | 1015.7 |
| 20260505025954 | 76 | 102 | 4.3 | 13.9 | 0.00 | 0.12 | 0.10 | 86 | 1015.6 |
| 20260505025450 | 76 | 128 | 4.3 | 13.9 | 0.00 | 0.12 | 0.10 | 86 | 1015.7 |
| 20260505025210 | 76 | 65 | 4.3 | 11.3 | 0.00 | 0.13 | 0.10 | 86 | 1015.9 |
| 20260505024448 | 76 | 61 | 4.3 | 10.4 | 0.00 | 0.15 | 0.10 | 86 | 1015.9 |
| 20260505023947 | 76 | 101 | 5.2 | 10.4 | 0.00 | 0.16 | 0.10 | 87 | 1015.9 |
| 20260505023935 | 76 | 83 | 4.3 | 10.4 | 0.00 | 0.18 | 0.10 | 86 | 1015.7 |
| 20260505022951 | 76 | 66 | 4.3 | 9.6 | 0.00 | 0.21 | 0.10 | 86 | 1015.8 |
| 20260505022446 | 76 | 103 | 4.3 | 9.6 | 0.00 | 0.25 | 0.10 | 86 | 1015.9 |
| 20260505021947 | 76 | 136 | 3.5 | 11.3 | 0.00 | 0.25 | 0.10 | 86 | 1015.8 |
| 20260505021446 | 76 | 86 | 3.5 | 11.3 | 0.00 | 0.25 | 0.10 | 86 | 1015.8 |
| 20260505020947 | 76 | 101 | 3.5 | 10.4 | 0.00 | 0.25 | 0.10 | 86 | 1015.6 |
| 20260505020446 | 76 | 120 | 2.6 | 8.7 | 0.00 | 0.25 | 0.10 | 86 | 1015.7 |
| 20260505015946 | 76 | 88 | 3.5 | 10.4 | 0.00 | 0.25 | 0.10 | 86 | 1015.9 |
| 20260505015446 | 76 | 83 | 3.5 | 10.4 | 0.00 | 0.25 | 0.10 | 87 | 1016.1 |
| 20260505014948 | 76 | 56 | 3.5 | 9.6 | 0.00 | 0.25 | 0.10 | 87 | 1016.1 |
| 20260505014447 | 76 | 350 | 3.5 | 9.6 | 0.00 | 0.25 | 0.10 | 87 | 1015.9 |
| 20260505013946 | 76 | 101 | 3.5 | 9.6 | 0.00 | 0.25 | 0.10 | 86 | 1015.7 |
| 20260505013446 | 76 | 80 | 3.5 | 10.4 | 0.00 | 0.25 | 0.10 | 86 | 1015.7 |
| 20260505012946 | 76 | 79 | 3.5 | 11.3 | 0.00 | 0.25 | 0.10 | 86 | 1015.7 |
| 20260505012446 | 76 | 86 | 3.5 | 11.3 | 0.00 | 0.25 | 0.10 | 85 | 1015.5 |
| 20260505012209 | 76 | 99 | 3.5 | 8.7 | 0.00 | 0.25 | 0.10 | 85 | 1015.5 |
| 20260505011447 | 76 | 96 | 3.5 | 8.7 | 0.00 | 0.25 | 0.10 | 85 | 1015.4 |
| 20260505010946 | 76 | 93 | 3.5 | 11.3 | 0.00 | 0.25 | 0.10 | 85 | 1015.4 |
| 20260505010446 | 76 | 122 | 3.5 | 11.3 | 0.00 | 0.25 | 0.10 | 85 | 1015.4 |
| 20260505005947 | 76 | 87 | 3.5 | 7.8 | 0.00 | 0.26 | 0.10 | 85 | 1015.3 |
| 20260505005446 | 76 | 73 | 3.5 | 8.7 | 0.00 | 0.26 | 0.10 | 85 | 1015.2 |
| 20260505004945 | 76 | 97 | 4.3 | 11.3 | 0.00 | 0.26 | 0.10 | 85 | 1015.2 |
| 20260505004447 | 76 | 82 | 4.3 | 11.3 | 0.00 | 0.26 | 0.10 | 85 | 1015.4 |
| 20260505003946 | 76 | 149 | 4.3 | 10.4 | 0.00 | 0.28 | 0.10 | 85 | 1015.2 |
| 20260505003447 | 76 | 98 | 4.3 | 10.4 | 0.00 | 0.31 | 0.10 | 84 | 1015.1 |
| 20260505002946 | 76 | 104 | 3.5 | 8.7 | 0.00 | 0.32 | 0.10 | 84 | 1015.1 |
| 20260505002446 | 76 | 99 | 4.3 | 11.3 | 0.00 | 0.33 | 0.10 | 83 | 1015.1 |
| 20260505001947 | 76 | 130 | 4.3 | 11.3 | 0.00 | 0.34 | 0.10 | 83 | 1015.2 |
| 20260505001445 | 76 | 98 | 3.5 | 10.4 | 0.00 | 0.35 | 0.10 | 84 | 1015.3 |
| 20260505000945 | 76 | 121 | 4.3 | 10.4 | 0.00 | 0.36 | 0.10 | 84 | 1015.1 |
| 20260505000445 | 76 | 91 | 4.3 | 7.8 | 0.00 | 0.38 | 0.10 | 84 | 1015.0 |
| 20260504235946 | 76 | 118 | 3.5 | 11.3 | 0.00 | 0.43 | 0.10 | 83 | 1015.1 |
| 20260504235446 | 76 | 105 | 3.5 | 11.3 | 0.00 | 0.49 | 0.10 | 83 | 1015.0 |
| 20260504234949 | 76 | 9 | 3.5 | 11.3 | 0.00 | 0.53 | 0.10 | 82 | 1015.0 |
| 20260504234446 | 76 | 100 | 4.3 | 11.3 | 0.00 | 0.55 | 0.10 | 83 | 1014.9 |
| 20260504233944 | 76 | 60 | 4.3 | 11.3 | 0.00 | 0.57 | 0.10 | 82 | 1014.9 |
| 20260504233443 | 76 | 84 | 3.5 | 9.6 | 0.00 | 0.59 | 0.10 | 82 | 1014.9 |
| 20260504232943 | 76 | 111 | 2.6 | 9.6 | 0.00 | 0.59 | 0.10 | 82 | 1014.9 |
| 20260504232441 | 76 | 59 | 3.5 | 9.6 | 0.00 | 0.59 | 0.10 | 83 | 1015.1 |
| 20260504231937 | 76 | 101 | 4.3 | 13.0 | 0.00 | 0.59 | 0.10 | 83 | 1015.0 |
| 20260504231438 | 76 | 61 | 4.3 | 13.0 | 0.00 | 0.59 | 0.10 | 82 | 1014.8 |
| 20260504230937 | 76 | 69 | 3.5 | 11.3 | 0.00 | 0.59 | 0.10 | 82 | 1014.7 |
| 20260504230919 | 76 | 51 | 3.5 | 10.4 | 0.00 | 0.59 | 0.10 | 82 | 1014.7 |
| 20260504225936 | 76 | 78 | 3.5 | 7.8 | 0.00 | 0.59 | 0.10 | 83 | 1014.7 |
| 20260504225435 | 76 | 101 | 4.3 | 9.6 | 0.00 | 0.59 | 0.10 | 81 | 1014.7 |
| 20260504224936 | 76 | 51 | 3.5 | 9.6 | 0.00 | 0.59 | 0.10 | 81 | 1014.7 |
| 20260504224430 | 76 | 93 | 3.5 | 8.7 | 0.00 | 0.59 | 0.10 | 83 | 1014.6 |
| 20260504223924 | 76 | 98 | 3.5 | 8.7 | 0.00 | 0.59 | 0.10 | 82 | 1014.6 |
| 20260504223418 | 76 | 49 | 3.5 | 10.4 | 0.00 | 0.59 | 0.10 | 82 | 1014.7 |
| 20260504222912 | 76 | 108 | 4.3 | 11.3 | 0.00 | 0.59 | 0.10 | 83 | 1014.9 |
| 20260504222406 | 76 | 53 | 4.3 | 11.3 | 0.00 | 0.59 | 0.10 | 82 | 1014.9 |
| 20260504221900 | 77 | 90 | 4.3 | 9.6 | 0.00 | 0.59 | 0.10 | 82 | 1014.9 |
| 20260504221354 | 77 | 101 | 3.5 | 11.3 | 0.00 | 0.59 | 0.10 | 82 | 1015.0 |
| 20260504221115 | 77 | 108 | 4.3 | 11.3 | 0.00 | 0.59 | 0.10 | 81 | 1015.0 |
| 20260504220343 | 78 | 84 | 4.3 | 10.4 | 0.00 | 0.59 | 0.10 | 79 | 1015.0 |
| 20260504215837 | 77 | 88 | 4.3 | 10.4 | 0.00 | 0.59 | 0.10 | 79 | 1014.8 |
| 20260504215331 | 78 | 79 | 3.5 | 10.4 | 0.00 | 0.59 | 0.10 | 79 | 1014.7 |
| 20260504215052 | 78 | 72 | 4.3 | 10.4 | 0.00 | 0.59 | 0.10 | 78 | 1014.6 |
| 20260504214318 | 78 | 86 | 4.3 | 9.6 | 0.00 | 0.59 | 0.10 | 79 | 1014.7 |
| 20260504213812 | 78 | 100 | 5.2 | 10.4 | 0.00 | 0.59 | 0.10 | 80 | 1014.6 |
| 20260504213306 | 78 | 63 | 5.2 | 10.4 | 0.00 | 0.59 | 0.10 | 80 | 1014.6 |
| 20260504212800 | 78 | 110 | 4.3 | 10.4 | 0.00 | 0.59 | 0.10 | 81 | 1014.6 |
| 20260504212254 | 78 | 83 | 4.3 | 11.3 | 0.00 | 0.59 | 0.10 | 80 | 1014.7 |
| 20260504211748 | 77 | 82 | 4.3 | 11.3 | 0.00 | 0.59 | 0.10 | 82 | 1014.8 |
| 20260504211242 | 77 | 93 | 5.2 | 11.3 | 0.00 | 0.59 | 0.10 | 82 | 1014.9 |
| 20260504210736 | 77 | 68 | 4.3 | 11.3 | 0.00 | 0.59 | 0.10 | 82 | 1014.9 |
| 20260504210230 | 77 | 86 | 4.3 | 13.0 | 0.00 | 0.59 | 0.10 | 82 | 1015.0 |
| 20260504205724 | 77 | 59 | 4.3 | 13.0 | 0.00 | 0.60 | 0.10 | 81 | 1014.9 |
| 20260504205445 | 77 | 77 | 3.5 | 10.4 | 0.00 | 0.61 | 0.10 | 81 | 1015.1 |
| 20260504204712 | 78 | 129 | 4.3 | 13.0 | 0.00 | 0.62 | 0.10 | 82 | 1015.1 |
| 20260504204206 | 78 | 72 | 4.3 | 13.0 | 0.00 | 0.62 | 0.10 | 80 | 1015.2 |
| 20260504203927 | 78 | 54 | 4.3 | 13.9 | 0.00 | 0.62 | 0.10 | 80 | 1015.2 |
| 20260504203154 | 78 | 77 | 5.2 | 13.9 | 0.00 | 0.63 | 0.10 | 80 | 1015.2 |
| 20260504202648 | 79 | 60 | 4.3 | 10.4 | 0.00 | 0.63 | 0.10 | 79 | 1015.2 |
| 20260504202412 | 80 | 82 | 4.3 | 10.4 | 0.00 | 0.63 | 0.10 | 79 | 1015.2 |
| 20260504201900 | 80 | 61 | 4.3 | 12.2 | 0.00 | 0.63 | 0.10 | 79 | 1015.2 |
| 20260504201130 | 79 | 110 | 4.3 | 12.2 | 0.00 | 0.63 | 0.10 | 78 | 1015.2 |
| 20260504200624 | 80 | 68 | 4.3 | 9.6 | 0.00 | 0.63 | 0.10 | 78 | 1015.2 |
| 20260504200119 | 80 | 129 | 4.3 | 13.0 | 0.00 | 0.63 | 0.10 | 80 | 1015.3 |
| 20260504195612 | 79 | 79 | 4.3 | 13.9 | 0.00 | 0.63 | 0.10 | 80 | 1015.4 |
| 20260504195106 | 79 | 95 | 5.2 | 13.9 | 0.00 | 0.63 | 0.10 | 79 | 1015.5 |
| 20260504194600 | 78 | 99 | 5.2 | 11.3 | 0.00 | 0.63 | 0.10 | 80 | 1015.3 |
| 20260504194317 | 79 | 98 | 5.2 | 11.3 | 0.00 | 0.63 | 0.10 | 80 | 1015.4 |
| 20260504193821 | 79 | 75 | 5.2 | 11.3 | 0.00 | 0.63 | 0.10 | 81 | 1015.6 |
| 20260504193042 | 79 | 99 | 4.3 | 11.3 | 0.00 | 0.63 | 0.10 | 81 | 1015.6 |
| 20260504192537 | 79 | 127 | 5.2 | 12.2 | 0.00 | 0.63 | 0.10 | 80 | 1015.6 |
| 20260504192255 | 79 | 58 | 5.2 | 12.2 | 0.00 | 0.63 | 0.10 | 80 | 1015.6 |
| 20260504191524 | 79 | 113 | 4.3 | 11.3 | 0.00 | 0.63 | 0.10 | 80 | 1015.7 |
| 20260504191018 | 79 | 113 | 5.2 | 11.3 | 0.00 | 0.64 | 0.10 | 81 | 1015.7 |
| 20260504190513 | 79 | 94 | 5.2 | 11.3 | 0.00 | 0.64 | 0.10 | 80 | 1015.8 |
| 20260504190006 | 79 | 147 | 5.2 | 13.9 | 0.00 | 0.65 | 0.10 | 81 | 1015.7 |
| 20260504185500 | 79 | 70 | 5.2 | 12.2 | 0.00 | 0.65 | 0.10 | 81 | 1015.7 |
| 20260504184954 | 79 | 131 | 4.3 | 10.4 | 0.00 | 0.66 | 0.10 | 83 | 1015.8 |
| 20260504184449 | 78 | 79 | 5.2 | 12.2 | 0.00 | 0.66 | 0.10 | 81 | 1015.7 |
| 20260504183943 | 78 | 114 | 6.1 | 12.2 | 0.00 | 0.66 | 0.10 | 82 | 1015.7 |
| 20260504183436 | 78 | 91 | 6.1 | 14.8 | 0.00 | 0.66 | 0.10 | 83 | 1015.9 |
| 20260504183157 | 77 | 99 | 5.2 | 14.8 | 0.00 | 0.66 | 0.10 | 83 | 1016.0 |
| 20260504182424 | 77 | 94 | 5.2 | 13.9 | 0.00 | 0.67 | 0.10 | 84 | 1016.1 |
| 20260504182143 | 76 | 103 | 6.1 | 13.9 | 0.00 | 0.68 | 0.10 | 84 | 1016.1 |
| 20260504181639 | 76 | 80 | 6.1 | 11.3 | 0.00 | 0.72 | 0.10 | 84 | 1016.0 |
| 20260504181355 | 76 | 150 | 6.1 | 12.2 | 0.00 | 0.73 | 0.10 | 84 | 1016.1 |
| 20260504180407 | 76 | 97 | 5.2 | 12.2 | 0.00 | 0.73 | 0.10 | 84 | 1016.2 |
| 20260504175907 | 77 | 60 | 5.2 | 13.0 | 0.00 | 0.73 | 0.10 | 85 | 1016.2 |
| 20260504175409 | 77 | 70 | 5.2 | 13.0 | 0.00 | 0.74 | 0.10 | 84 | 1016.2 |
| 20260504174907 | 77 | 79 | 5.2 | 16.5 | 0.00 | 0.74 | 0.10 | 84 | 1016.1 |
| 20260504174406 | 77 | 139 | 5.2 | 16.5 | 0.00 | 0.74 | 0.10 | 84 | 1016.3 |
| 20260504173907 | 77 | 101 | 5.2 | 13.0 | 0.00 | 0.74 | 0.10 | 84 | 1016.2 |
| 20260504173408 | 77 | 84 | 6.1 | 13.9 | 0.00 | 0.74 | 0.10 | 83 | 1016.4 |
| 20260504172908 | 77 | 90 | 5.2 | 13.9 | 0.00 | 0.74 | 0.10 | 82 | 1016.3 |
| 20260504172408 | 78 | 58 | 5.2 | 13.0 | 0.00 | 0.74 | 0.10 | 84 | 1016.4 |
| 20260504172356 | 78 | 103 | 6.1 | 13.0 | 0.00 | 0.74 | 0.10 | 83 | 1016.4 |
| 20260504171405 | 78 | 93 | 6.1 | 15.6 | 0.00 | 0.74 | 0.10 | 83 | 1016.3 |
| 20260504170905 | 78 | 70 | 6.1 | 15.6 | 0.00 | 0.74 | 0.10 | 83 | 1016.3 |
| 20260504170407 | 78 | 43 | 6.1 | 13.0 | 0.01 | 0.74 | 0.10 | 83 | 1016.4 |
| 20260504170135 | 78 | 93 | 6.1 | 13.0 | 0.01 | 0.74 | 0.10 | 83 | 1016.4 |